Regional Weather Roundup
Issued by NWS Cleveland, OH

Home | Current Version | Previous Version | Graphics & Text | Print | Product List | Glossary On
Versions: 1 2 3 4 5 6 7 8 9 10 11 12 13 14 15 16 17 18 19 20 21 22 23 24 25 26 27 28 29 30 31 32 33 34 35 36 37 38 39 40 41 42 43 44 45 46 47 48 49 50
000
ASUS41 KCLE 230200
RWRCLE
OHIO REGIONAL WEATHER ROUNDUP
NATIONAL WEATHER SERVICE WILMINGTON, OH
1000 PM EDT SAT APR 22 2017

NOTE: "FAIR" INDICATES FEW OR NO CLOUDS BELOW 12,000 FEET WITH NO
SIGNIFICANT WEATHER AND/OR OBSTRUCTIONS TO VISIBILITY.

OHZ001>008-015>018-024>027-034-035-043-044-230300-
   NORTHWEST OHIO

CITY           SKY/WX    TMP DP  RH WIND       PRES   REMARKS
DEFIANCE       FAIR      49  33  54 SE3       30.13R
FINDLAY        FAIR      47  33  58 E6        30.12R
TOLEDO EXPRESS FAIR      45  33  63 CALM      30.12R
TOLEDO EXEC    FAIR      48  35  60 E3        30.14R
LIMA           FAIR      46  35  65 NE7       30.12R
$$

OHZ009>014-019>023-028>033-038-089-230300-
   NORTHEAST OHIO

CITY           SKY/WX    TMP DP  RH WIND       PRES   REMARKS
CLE-HOPKINS    MOCLDY    46  36  68 CALM      30.15R
CLE-LAKEFRONT  FAIR      46  38  73 CALM      30.12R
CUY CO. ARPT   MOCLDY    43  39  87 CALM      30.12R
LORAIN-ELYRIA  FAIR      44  35  70 CALM      30.13R
ASHTABULA      FAIR      42  38  85 CALM      30.12R
AKRON-CANTON   MOCLDY    45  33  63 NE6       30.10R
WOOSTER        NOT AVBL
MANSFIELD      FAIR      43  35  73 N6        30.11R
YOUNGSTOWN     CLOUDY    45  35  68 N8        30.10R
$$

OHZ042-051>053-060>062-070>072-077>081-230300-
  SOUTHWEST OHIO

CITY           SKY/WX    TMP DP  RH WIND       PRES   REMARKS
CINC-COVINGTON FAIR      50  34  54 NE14      30.05R
CINC-LUNKEN    FAIR      48  38  68 NE5       30.07R
HAMILTON       FAIR      45  35  68 NE6       30.08R
DAYTON         NOT AVBL
WRIGHT-PAT AFB FAIR      47  34  61 NE12      30.08S
DAYTON GENERAL FAIR      47  34  60 NE10      30.07R
WILMINGTON     FAIR      45  38  76 NE12      30.06R
$$

OHZ036-037-039>041-045>050-054>059-063>069-073>076-082>088-230300-
  CENTRAL AND SOUTHEAST OHIO

CITY           SKY/WX    TMP DP  RH WIND       PRES   REMARKS
COLUMBUS       FAIR      47  34  60 N9        30.09R
OSU AIRPORT    FAIR      43  34  70 N7        30.10R
BOLTON FIELD   NOT AVBL
RICKENBACK AFB NOT AVBL
NEWARK         FAIR      48  33  56 N5        30.08R
MARION         FAIR      42  34  73 N7        30.12R
LANCASTER      FAIR      49  37  63 N8        30.09R
ZANESVILLE     FAIR      49  36  61 N6        30.08R
NEW PHILLY     FAIR      48  35  60 N5        30.09R
$$




USA.gov is the U.S. government's official web portal to all federal, state and local government web resources and services.